Location: Cartignies
(50.0929°N, 3.8447°E)
Time: 14:11:26
(UTC+00:00)

Cosmos 2218 Rocket - Pass Details

Date: 12 January 2026
Orbit: 955 x 1005 km, 82.9° (Epoch: 15 February)

Event Time Altitude Azimuth Distance (km) Brightness Sun altitude
Rises 17:42:39 0° 350° (N) 3,743 7.0 -14.8°
Reaches altitude 10° 17:45:12 10° 352° (N) 2,791 6.3 -15.2°
Maximum altitude 17:51:38 82° 80° (E) 1,021 4.0 -16.1°
Drops below altitude 10° 17:58:02 10° 169° (SSE) 2,768 6.4 -17.1°
Sets 18:00:33 0° 170° (S) 3,709 7.1 -17.5°
